AirNav   Everest Fuels
 
 994 users online  

NH48 Elliot Hospital Heliport
Manchester, New Hampshire, USA

GOING TO MANCHESTER?


FAA INFORMATION EFFECTIVE 21 MAY 2020

Location

FAA Identifier: NH48
Lat/Long: 42-59-05.8000N 071-26-15.8000W
42-59.096667N 071-26.263333W
42.9849444,-71.4377222
(estimated)
Elevation: 329 ft. / 100 m (estimated)
Time zone: UTC -4 (UTC -5 during Standard Time)
Zip code: 03103

Heliport Operations

Heliport use: Private use. Permission required prior to landing
Activation date: 05/2015
Control tower: no
ARTCC: BOSTON CENTER
FSS: BANGOR FLIGHT SERVICE STATION
Attendance: 
Wind indicator: lighted
Segmented circle: no
Lights: SS-SR

Heliport Communications

WX ASOS at MHT (3 nm S): 119.55 (603-621-1766)
WX AWOS-3PT at ASH (13 nm S): 125.1 (603-578-0473)
WX ASOS at CON (13 nm N): 132.325 (603-224-6558)

Nearby radio navigation aids

VOR radial/distance  VOR name  Freq  Var
MHTr352/7.6MANCHESTER VOR/DME114.4015W
CONr172/15.3CONCORD VOR/DME112.9015W
LWMr329/21.0LAWRENCE VOR/DME112.5015W
PSMr273/27.2PEASE VOR/DME116.5016W
GDMr060/38.0GARDNER VOR/DME110.6014W
EENr087/39.2KEENE VORTAC109.4014W

 
NDB name  Hdg/Dist  Freq  Var  ID
EPSOM191/8.121616WCO -.-. ---
FITZY044/8.320915WMJ -- .---
ROLLINS258/30.226016WESG . ... --.

Heliport Services

Runway Information

Helipad H1

Dimensions: 44 x 44 ft. / 13 x 13 m
Surface: concrete
Runway edge lights: PERI
Traffic pattern: leftleft
Obstructions: bldg
BLDG 80 FT 'S' HOSPITAL;PLINES 90 FT 'N'; SMOKE STACK 275 FT 'SE'.

Heliport Ownership and Management from official FAA records

Ownership: Privately-owned
Owner: DARTMOUTH ADVANCED RESPONSE TEAM
ONE MEDICAL CENTER DR
LEBANON, NH 03756
Phone 603-650-9434

Additional Remarks

FOR CD CTC BOSTON APCH AT 603-594-5551.

Instrument Procedures

There are no published instrument procedures at NH48.

Some nearby airports with instrument procedures:

KMHT - Manchester Airport (3 nm S)
KASH - Boire Field Airport (13 nm S)
KCON - Concord Municipal Airport (13 nm N)
KLWM - Lawrence Municipal Airport (21 nm SE)
KAFN - Jaffrey Airport-Silver Ranch (27 nm SW)
 
Loc | Ops | Rwys | IFR | FBO | Links
Com | Nav | Svcs | Stats | Notes
Aerial photo
No photo
 
Airport distance calculator
Flying to Elliot Hospital Heliport? Find the distance to fly.

From to NH48

Sunrise and sunset
Times for 28-May-2020
 Local
(UTC-4)
 Zulu
(UTC)
Morning civil twilight04:3808:38
Sunrise05:1209:12
Sunset20:1400:14
Evening civil twilight20:4800:48

Current date and time
Zulu (UTC)  29-May-2020 00:33:53
Local (UTC-4)  28-May-2020 20:33:53
 
METAR
KMHT 
3nm S 
282353Z 20012KT 10SM FEW030 BKN042 BKN070 25/18 A3007 RMK AO2 SLP192 T02500183 10289 20250 58008
KCON 
13nm N 
282351Z AUTO 18008KT 10SM BKN041 BKN070 24/18 A3007 RMK AO2 SLP183 T02390183 10289 20239 58006
KASH 
14nm S 
290016Z 17007KT 130V210 10SM BKN026 OVC036 24/20 A3010 RMK AO2
TAF
KMHT 
3nm S 
281729Z 2818/2918 22010G20KT P6SM BKN035 FM282300 20009KT P6SM BKN035 FM290200 20008KT P6SM OVC015 FM291300 21008KT P6SM BKN020 FM291500 21008G18KT P6SM SCT035
KCON 
13nm N 
281729Z 2818/2918 22009G18KT P6SM BKN080 FM282300 20008KT P6SM BKN035 FM290100 20008KT P6SM BKN020 FM291200 21008KT P6SM SCT050 FM291500 21009G18KT P6SM SCT035
NOTAMs
Click for the latest NOTAMs
NOTAMs are issued by the DoD/FAA and will open in a separate window not controlled by AirNav.

 

 
 

Would you like to see your business listed on this page?

 If your business provides an interesting product or service to pilots, flight crews, aircraft, or users of the Elliot Hospital Heliport, you should consider listing it here.  To start the listing process, click on the button below
 
Add a business
 

Other Pages about Elliot Hospital Heliport

Update a link
 
Copyright © AirNav, LLC. All rights reserved. Privacy Policy  Contact